Time,TemperatureF,DewpointF,PressureIn,WindDirection,WindDirectionDegrees,WindSpeedMPH,WindSpeedGustMPH,Humidity,HourlyPrecipIn,Conditions,Clouds,dailyrainin,SolarRadiationWatts/m^2,SoftwareType,DateUTC
2014-01-23 00:00:00,5.0,2.0,-100.00,West,270,1.0,-999.0,86,-99.99,,,-99.99,0.000000,,2014-01-23 05:00:00,
2014-01-23 00:43:00,5.0,2.0,-100.00,West,270,1.0,-999.0,86,-99.99,,,-99.99,0.000000,,2014-01-23 05:43:00,
2014-01-23 00:53:00,5.0,2.0,-100.00,West,270,1.0,-999.0,86,-99.99,,,-99.99,0.000000,,2014-01-23 05:53:00,
2014-01-23 03:00:00,3.0,0.0,-100.00,West,270,1.0,-999.0,86,-99.99,,,-99.99,0.000000,,2014-01-23 08:00:00,
2014-01-23 03:42:00,3.0,0.0,-100.00,West,270,1.0,-999.0,86,-99.99,,,-99.99,0.000000,,2014-01-23 08:42:00,
2014-01-23 03:53:00,3.0,0.0,-100.00,West,270,1.0,-999.0,86,-99.99,,,-99.99,0.000000,,2014-01-23 08:53:00,
2014-01-23 06:00:00,-1.0,-5.0,-100.00,North,-999,0.0,-999.0,83,-99.99,,,-99.99,0.000000,,2014-01-23 11:00:00,
2014-01-23 06:43:00,-1.0,-5.0,-100.00,North,-999,0.0,-999.0,83,-99.99,,,-99.99,0.000000,,2014-01-23 11:43:00,
2014-01-23 06:52:00,-1.0,-5.0,-100.00,North,-999,0.0,-999.0,83,-99.99,,,-99.99,0.000000,,2014-01-23 11:52:00,
2014-01-23 09:00:00,2.0,-1.0,-100.00,NNW,337,3.0,-999.0,85,-99.99,,,-99.99,45.240002,,2014-01-23 14:00:00,
2014-01-23 09:42:00,2.0,-1.0,-100.00,NNW,337,3.0,-999.0,85,-99.99,,,-99.99,45.240002,,2014-01-23 14:42:00,
2014-01-23 09:52:00,2.0,-1.0,-100.00,NNW,337,3.0,-999.0,85,-99.99,,,-99.99,45.240002,,2014-01-23 14:52:00,
2014-01-23 12:00:00,14.0,11.0,-100.00,North,0,5.0,-999.0,87,-99.99,,,-99.99,307.399994,,2014-01-23 17:00:00,
2014-01-23 12:43:00,14.0,11.0,-100.00,North,0,5.0,-999.0,87,-99.99,,,-99.99,307.399994,,2014-01-23 17:43:00,
2014-01-23 12:52:00,14.0,11.0,-100.00,North,0,5.0,-999.0,87,-99.99,,,-99.99,307.399994,,2014-01-23 17:52:00,
2014-01-23 18:00:00,11.0,8.0,-100.00,NW,315,3.0,-999.0,86,-99.99,,,-99.99,11.600000,,2014-01-23 23:00:00,
2014-01-23 18:43:00,11.0,8.0,-100.00,NW,315,3.0,-999.0,86,-99.99,,,-99.99,11.600000,,2014-01-23 23:43:00,
2014-01-23 18:53:00,11.0,8.0,-100.00,NW,315,3.0,-999.0,86,-99.99,,,-99.99,11.600000,,2014-01-23 23:53:00,
2014-01-23 21:00:00,10.0,7.0,-100.00,WSW,247,1.0,-999.0,88,-99.99,,,-99.99,0.000000,,2014-01-24 02:00:00,
2014-01-23 21:42:00,10.0,7.0,-100.00,WSW,247,1.0,-999.0,88,-99.99,,,-99.99,0.000000,,2014-01-24 02:42:00,
2014-01-23 21:52:00,10.0,7.0,-100.00,WSW,247,1.0,-999.0,88,-99.99,,,-99.99,0.000000,,2014-01-24 02:52:00,